RH
24 20 35 49 58 37 59 69 66 96 97 80 72 65 59 53 57 72 66 63 58 65 67 50 26 20 20 20 19 20 18 17
42 47 47 48 51 61 95 74 98 77 68 81 72 61 66 66 66 65 61 68 69 64 40 24 23 25 23 21 21 22 23 22
72 41 48 76 93 96 68 53 42 37 41 59 71 71 63 64 65 69 72 68 48 28 25 23 23 25 27 31 32 34 33 26
67 83 93 93 87 70 60 41 44 64 79 64 60 65 67 68 72 70 52 33 32 33 36 43 48 47 40 33 28 18 16 18
50 67 79 96 78 55 51 73 99 91 71 62 63 66 68 64 51 42 43 48 53 58 55 38 32 25 20 16 14 16 18 18
66 98 100 86 59 60 99 99 100 86 74 76 76 84 79 66 67 64 56 50 38 32 30 25 19 15 15 16 18 23 27 34
96 99 76 54 57 100 90 97 86 89 100 96 86 73 63 58 47 38 33 33 31 28 21 15 16 18 20 23 27 33 38 32
47 54 65 99 99 98 84 65 79 96 82 66 48 46 44 41 38 38 39 33 29 23 17 19 24 26 32 38 41 37 37 33
44 96 90 52 50 46 49 63 79 55 43 41 44 46 44 43 46 44 36 31 26 20 23 27 32 40 43 44 36 38 28 9
34 34 34 35 40 44 51 58 43 44 53 56 53 51 52 51 44 36 32 29 24 23 28 36 38 40 45 43 39 16 7 12
20 22 28 33 37 42 46 50 53 56 56 59 62 59 51 43 38 37 32 28 31 34 32 36 40 45 44 39 11 8 12 18
21 22 24 24 27 32 39 48 58 61 66 67 62 54 47 46 41 35 32 34 34 41 43 47 48 48 29 9 10 15 24 60
26 26 25 25 28 37 43 55 66 71 74 71 60 55 52 46 39 36 39 41 47 49 53 49 48 23 9 13 20 22 42 60
27 29 30 32 35 42 52 60 70 76 74 67 61 56 51 48 46 48 44 48 51 54 50 46 22 10 14 28 35 48 52 55
29 31 34 37 41 44 43 51 66 74 72 70 65 59 57 55 53 47 52 52 54 49 39 21 11 13 30 42 47 50 57 55
32 33 36 39 43 42 43 61 79 84 81 72 66 61 60 51 45 52 58 60 50 36 22 12 11 25 41 49 54 60 60 54
34 34 37 42 48 46 60 85 92 85 77 71 67 67 48 48 51 59 64 54 38 23 13 11 19 43 54 62 67 67 67 49
35 36 41 50 55 60 80 91 90 84 76 76 61 54 56 60 64 67 54 37 23 13 12 16 41 55 58 69 72 74 60 43
38 40 46 60 63 72 87 89 88 87 82 66 62 62 65 70 70 52 34 24 14 14 14 33 58 57 64 71 73 69 55 40
Wind_Speed
12 14 12 15 18 20 16 15 22 27 33 36 36 39 44 47 45 42 47 54 54 49 47 42 44 47 51 54 56 59 61 63
14 17 20 21 21 20 17 23 35 38 38 36 45 49 46 51 54 54 51 51 49 46 46 49 53 57 61 63 65 67 71 73
17 21 22 21 19 20 32 38 41 44 45 53 52 52 53 52 49 47 46 45 44 48 52 56 61 66 69 72 74 76 78 81
21 21 23 25 29 34 39 43 44 46 51 52 53 54 48 46 46 44 43 47 52 56 60 63 66 69 72 75 78 81 84 86
23 23 24 25 33 38 36 39 46 48 51 54 57 54 49 45 42 45 50 54 58 60 62 65 70 74 78 81 83 86 89 92
26 26 26 31 36 39 36 43 42 52 51 55 55 50 46 46 49 52 54 57 60 64 68 73 78 81 84 86 89 92 96 98
29 29 33 36 34 39 42 47 57 49 49 50 46 45 46 47 50 55 59 63 67 70 74 78 82 85 89 92 95 99 99 97
26 28 32 41 39 41 46 52 48 47 47 46 45 47 50 53 58 61 64 67 71 75 79 83 86 90 94 96 99 99 100 101
25 25 37 41 41 46 50 47 47 45 45 46 49 51 54 58 60 63 67 70 76 79 84 87 91 94 95 98 98 102 103 92
22 26 31 34 37 41 42 44 44 47 46 46 49 53 57 59 62 66 70 75 79 85 90 93 96 100 103 103 104 104 87 75
26 29 31 34 36 38 40 42 45 45 47 51 55 58 60 63 67 71 76 82 87 91 94 96 100 103 102 104 95 77 67 59
29 31 33 34 36 40 44 47 49 51 54 57 60 61 64 68 72 77 82 88 92 93 95 97 101 102 100 87 66 59 50 43
32 34 37 40 41 44 47 50 53 56 58 60 61 64 69 73 77 82 87 92 92 94 95 100 100 98 82 60 50 43 39 42
37 39 40 42 45 47 50 53 56 58 60 61 64 68 72 76 81 86 91 91 92 94 98 99 96 78 56 48 40 40 41 47
39 40 41 43 46 49 52 55 56 57 59 63 66 71 76 80 85 89 89 91 93 97 96 92 75 55 45 42 40 42 47 50
41 42 43 45 48 51 55 55 56 58 61 65 69 75 79 83 87 89 90 92 97 94 89 76 57 44 41 41 42 46 50 51
43 45 48 49 51 54 56 56 58 60 64 68 74 79 83 87 89 89 90 95 93 88 76 59 44 39 41 42 44 47 51 51
47 49 50 51 53 56 57 58 59 63 67 74 79 82 86 88 89 90 93 91 85 75 60 46 38 39 40 42 45 47 49 50
50 52 52 52 55 58 58 59 62 67 73 77 82 85 87 87 89 93 90 83 74 62 47 38 36 38 39 42 45 47 48 49
Wind_Direction
287 293 298 299 289 294 289 275 285 282 307 314 316 315 308 309 310 304 303 300 301 301 299 295 298 300 300 301 301 299 297 297
295 299 299 301 295 293 285 271 297 311 305 307 314 316 309 306 304 301 299 301 302 302 302 304 304 304 305 305 304 303 302 301
290 293 297 297 298 289 293 301 305 307 305 308 311 309 304 300 301 304 305 302 302 304 305 306 307 309 309 308 306 304 302 299
288 296 296 294 297 302 308 310 306 301 301 303 304 308 307 306 308 307 305 306 308 309 309 308 307 305 304 302 301 302 302 302
287 288 291 292 300 301 300 300 296 298 304 306 310 309 308 307 306 307 307 307 304 303 302 302 303 305 306 306 305 306 306 304
302 288 285 295 300 298 294 300 298 311 308 307 305 304 305 305 304 301 298 299 302 305 308 310 310 310 309 307 306 305 304 303
296 296 300 296 295 287 295 289 299 306 299 295 294 295 295 295 296 300 305 309 310 311 312 313 314 312 310 308 307 305 305 303
296 294 296 298 287 285 294 301 301 296 294 289 290 292 297 302 305 307 309 310 312 312 312 312 312 310 307 306 306 305 305 304
291 289 291 291 294 296 296 296 294 292 292 297 298 299 301 303 305 308 309 310 311 309 309 309 308 307 307 308 309 309 308 304
288 285 287 293 295 294 294 294 292 296 299 299 299 301 302 305 308 309 310 309 308 310 311 310 309 312 312 313 312 310 306 302
316 314 310 305 302 299 296 296 302 304 305 305 306 306 309 310 311 310 310 311 313 313 313 314 314 314 313 313 311 307 306 304
314 307 304 304 305 307 307 308 307 307 307 307 308 310 311 312 311 312 313 313 313 314 315 315 315 315 315 314 310 309 309 309
314 313 311 310 310 308 308 307 306 305 306 308 310 311 311 312 311 312 312 313 313 314 316 317 317 317 316 313 313 314 317 312
317 316 313 309 308 308 307 305 304 306 308 309 310 310 310 310 312 312 313 314 315 317 317 318 319 317 313 313 315 317 314 316
314 313 310 306 305 305 306 306 306 306 307 308 308 309 311 313 314 314 314 315 317 318 318 319 318 313 311 312 313 318 320 319
310 308 306 304 304 307 309 308 307 307 307 308 309 311 312 313 314 314 315 317 318 318 320 319 315 311 313 312 315 317 318 320
309 307 306 305 307 311 310 308 307 307 308 309 310 312 313 314 316 315 316 318 318 321 320 317 313 310 313 314 314 317 318 318
309 306 306 307 310 311 308 306 306 307 310 311 312 312 315 316 316 316 318 319 321 320 318 313 310 311 313 313 315 317 319 320
306 305 307 308 310 309 308 307 307 310 311 313 314 316 316 316 317 318 321 322 321 319 314 309 308 311 313 315 317 319 321 322